[[{"header":{"parameterUnit":"m.s-1","parameterCategory":1,"la1":30.2991,"la2":30.254,"lo1":-89.0895,"lo2":-89.0444,"dy":0.0017,"dx":0.0017,"nx":28,"ny":28,"refTime":"2024-07-31T03:00:00:Z","depth":0,"parameterNumber":2,"parameterNumberName":"U-component_of_WINDS"},"data":[0,0,0,0,0,0,0,0,0,0,0,0,0,0,0,0,0,0,0,0,0,0,0,0,0,0,0,0,0,0,0,0,0,0,0,0,0,0,0,0,0,0,0,0,0,0,0,0,0,0,0,0,0,0,0,0,0,0,1.2158,1.2158,0,1.2163,1.2163,1.2163,1.2145,1.2145,1.2144,1.2144,1.215,1.2151,1.2151,0,0,0,0,0,0,0,0,0,0,0,0,0,1.2135,1.2136,1.2158,1.2158,1.2158,1.2163,1.2163,1.2163,1.2145,1.2145,1.2144,1.2143,1.215,1.2151,1.2152,0,0,0,0,0,0,0,0,0,0,0,0,0,1.2143,1.2136,1.2158,1.215,1.2149,1.2163,1.2163,1.2163,1.2145,1.2145,1.2144,1.2143,1.215,1.2151,1.2152,1.2174,0,0,1.2155,1.2155,0,0,0,0,0,0,0,0,1.2143,1.2144,1.2151,1.215,1.2149,1.2153,1.2157,1.2167,1.2146,1.2147,1.2144,1.2143,1.2152,1.2153,1.2155,1.2174,1.2175,1.2155,1.2155,1.2156,1.2156,0,0,0,0,0,0,0,1.2142,1.2144,1.216,1.2151,1.215,1.2147,1.2147,1.2159,1.2154,1.2147,1.2145,1.2146,1.2151,1.2154,1.2155,1.2175,1.2155,1.2156,1.2156,1.2157,1.2215,1.2216,0,0,0,0,0,0,1.2143,1.2143,1.216,1.216,1.2144,1.2148,1.2148,1.2152,1.2154,1.2153,1.2147,1.2145,1.2153,1.2154,1.2155,1.2183,1.2156,1.2157,1.2157,1.2214,1.2215,1.2216,0,0,0,0,0,0,1.2142,1.2144,1.2159,1.2151,1.2153,1.2149,1.2154,1.2153,1.2156,1.2154,1.2153,1.2151,1.2152,1.2154,1.217,1.2183,1.2157,1.2158,1.2213,1.2214,1.2216,1.2237,0,0,0,0,0,0,1.2142,1.2144,1.2152,1.2152,1.2154,1.2173,1.2155,1.2154,1.2158,1.2156,1.2157,1.2157,1.2152,1.2169,1.2171,1.2184,1.2159,1.2212,1.2214,1.2215,1.2235,1.2239,1.2243,0,0,0,0,0,1.2141,1.2157,1.2152,1.2154,1.2163,1.2174,1.2175,1.2169,1.2159,1.2167,1.2166,1.2157,1.2181,1.217,1.2173,1.2186,1.2211,1.2213,1.2215,1.2234,1.2238,1.2242,0,0,0,0,0,0,1.2159,1.2157,1.2151,1.2168,1.2171,1.2171,1.2181,1.2174,1.218,1.2178,1.217,1.2171,1.2188,1.2189,1.2177,1.2209,1.2194,1.2197,1.2208,1.2212,1.2216,1.2215,1.216,0,0,0,0,0,1.2165,1.2173,1.2172,1.2187,1.2189,1.2185,1.2189,1.2184,1.2187,1.2188,1.2188,1.2192,1.2201,1.2207,1.2214,1.2236,1.2237,1.2246,1.225,1.2253,1.2255,1.2268,1.2273,1.2223,1.2223,1.2223,0,0,1.2177,1.2177,1.2183,1.219,1.2192,1.2202,1.2186,1.2196,1.2204,1.219,1.2205,1.2206,1.221,1.2229,1.2237,1.223,1.227,1.2256,1.2258,1.2259,1.2271,1.2276,1.228,1.2224,1.2224,1.2224,0,0,1.2205,1.2205,1.2219,1.2221,1.2224,1.2222,1.2225,1.2226,1.2226,1.2241,1.2232,1.2241,1.2256,1.226,1.2263,1.2295,1.2287,1.2298,1.2316,1.2329,1.2333,1.2337,1.2349,1.2353,1.23,1.2301,1.2301,0,1.222,1.2233,1.2226,1.2238,1.2242,1.2231,1.2245,1.2248,1.2254,1.2258,1.2249,1.2269,1.2271,1.2291,1.23,1.2303,1.2307,1.2297,1.2333,1.2336,1.234,1.2351,1.2356,1.2302,1.2302,1.2302,1.2301,0,1.2252,1.2262,1.2272,1.2278,1.2284,1.2297,1.2293,1.23,1.2296,1.2295,1.2311,1.2313,1.2322,1.2327,1.2322,1.2348,1.2343,1.2334,1.2319,1.2346,1.2357,1.2361,1.2304,1.2303,1.2303,1.2303,0,0,1.2289,1.2293,1.2297,1.23,1.2304,1.2312,1.2325,1.2334,1.234,1.2345,1.2357,1.2371,1.2364,1.2368,1.2364,1.2375,1.2402,1.2365,1.2365,1.2372,1.2431,1.2438,1.2443,1.2397,1.2398,1.2399,1.2431,0,1.2316,1.2338,1.2334,1.2356,1.2366,1.2357,1.2369,1.2373,1.2373,1.2383,1.2383,1.2393,1.2382,1.2385,1.2396,1.2396,1.2414,1.2394,1.2409,1.2409,1.2408,1.2449,1.2455,1.2486,1.2435,1.2436,1.2437,0,1.2351,1.2357,1.2381,1.2385,1.2389,1.2399,1.2408,1.2417,1.2422,1.2422,1.2428,1.2422,1.2437,1.2423,1.2444,1.2431,1.2437,1.2439,1.244,1.2441,1.2424,1.2451,1.2495,1.25,1.2443,1.2442,1.2442,0,1.2376,1.2391,1.2408,1.2411,1.2415,1.2424,1.2426,1.2431,1.2437,1.2445,1.2449,1.2459,1.2464,1.2473,1.2471,1.246,1.2493,1.2478,1.2494,1.2494,1.25,1.25,1.2546,1.2505,1.2505,1.2504,1.2504,0,1.2407,1.2422,1.2419,1.2429,1.2446,1.2442,1.2459,1.2461,1.2466,1.2477,1.247,1.248,1.2477,1.2488,1.2487,1.2506,1.2508,1.2509,1.2508,1.2509,1.2509,1.2513,1.2511,1.2506,1.2505,1.2505,1.2505,0,1.2438,1.2437,1.2454,1.2458,1.2459,1.2472,1.2475,1.2485,1.2486,1.25,1.2503,1.2504,1.2517,1.2516,1.253,1.253,1.2553,1.255,1.2551,1.255,1.2566,1.2565,1.2616,1.2623,1.2577,1.2577,1.2578,0,1.2458,1.2469,1.2474,1.2481,1.2484,1.2495,1.2502,1.2499,1.2506,1.2515,1.2525,1.2537,1.2546,1.2568,1.257,1.2582,1.2579,1.2597,1.2581,1.2582,1.258,1.2579,1.2581,1.2599,1.26,1.26,1.2601,0,1.2493,1.2492,1.2501,1.2512,1.252,1.2527,1.2534,1.2541,1.2539,1.2548,1.2561,1.2568,1.2584,1.2597,1.2608,1.2612,1.2607,1.2606,1.261,1.2611,1.2611,1.2612,1.2559,1.2604,1.2604,1.2604,1.2604,1.2603,1.2519,1.2529,1.2535,1.2546,1.2552,1.2559,1.2569,1.2571,1.2582,1.2594,1.2592,1.2607,1.2615,1.263,1.2635,1.2647,1.2641,1.2647,1.2649,1.265,1.2653,1.261,1.265,1.2649,1.2649,1.2649,1.2649,0,1.2554,1.2558,1.2569,1.2579,1.2588,1.2583,1.2591,1.2599,1.2613,1.262,1.263,1.2646,1.2659,1.2663,1.2676,1.2686,1.2684,1.2689,1.2688,1.269,1.2657,1.2652,1.2691,1.2691,1.2691,1.2691,1.2691,1.2691,1.2574,1.2591,1.2591,1.2612,1.2616,1.263,1.2636,1.2643,1.2649,1.2667,1.2678,1.2681,1.2687,1.2701,1.2713,1.2714,1.272,1.2726,1.2727,1.2696,1.2692,1.2688,1.2683,1.2728,1.2728,1.2758,1.2758,1.2759]},{"header":{"parameterUnit":"m.s-1","parameterCategory":1,"la1":30.2991,"la2":30.254,"lo1":-89.0895,"lo2":-89.0444,"dy":0.0017,"dx":0.0017,"nx":28,"ny":28,"refTime":"2024-07-31T03:00:00:Z","depth":0,"parameterNumber":3,"parameterNumberName":"V-component_of_WINDS"},"data":[0,0,0,0,0,0,0,0,0,0,0,0,0,0,0,0,0,0,0,0,0,0,0,0,0,0,0,0,0,0,0,0,0,0,0,0,0,0,0,0,0,0,0,0,0,0,0,0,0,0,0,0,0,0,0,0,0,0,-1.2392,-1.2392,0,-1.2364,-1.2363,-1.2363,-1.2345,-1.2345,-1.2345,-1.2345,-1.2315,-1.2314,-1.2313,0,0,0,0,0,0,0,0,0,0,0,0,0,-1.2431,-1.243,-1.2392,-1.2392,-1.2391,-1.2364,-1.2363,-1.2363,-1.2345,-1.2345,-1.2345,-1.2345,-1.2315,-1.2314,-1.2313,0,0,0,0,0,0,0,0,0,0,0,0,0,-1.241,-1.243,-1.2392,-1.2379,-1.2378,-1.2364,-1.2363,-1.2363,-1.2345,-1.2345,-1.2345,-1.2345,-1.2315,-1.2314,-1.2313,-1.231,0,0,-1.231,-1.231,0,0,0,0,0,0,0,0,-1.2411,-1.2408,-1.2381,-1.238,-1.2378,-1.2358,-1.2366,-1.2345,-1.2345,-1.2357,-1.2345,-1.2344,-1.2329,-1.2327,-1.2322,-1.2309,-1.2307,-1.231,-1.2309,-1.2309,-1.2309,0,0,0,0,0,0,0,-1.2412,-1.2409,-1.2381,-1.2381,-1.2379,-1.2375,-1.2372,-1.2362,-1.2344,-1.2356,-1.2355,-1.2352,-1.2328,-1.2323,-1.2321,-1.2307,-1.231,-1.2309,-1.2308,-1.2308,-1.2292,-1.2292,0,0,0,0,0,0,-1.2416,-1.2411,-1.2382,-1.238,-1.2394,-1.2374,-1.2371,-1.2364,-1.2345,-1.2341,-1.2352,-1.2351,-1.2325,-1.2322,-1.232,-1.2316,-1.2309,-1.2308,-1.2307,-1.2292,-1.2292,-1.2292,0,0,0,0,0,0,-1.2417,-1.2413,-1.2383,-1.2395,-1.2391,-1.2374,-1.2367,-1.2364,-1.2359,-1.2341,-1.2338,-1.235,-1.2325,-1.2322,-1.2313,-1.2315,-1.2308,-1.2307,-1.2292,-1.2292,-1.2292,-1.2308,0,0,0,0,0,0,-1.2418,-1.2414,-1.2412,-1.2395,-1.239,-1.2376,-1.2367,-1.2364,-1.2357,-1.2356,-1.2338,-1.2335,-1.2324,-1.2315,-1.2312,-1.2313,-1.2306,-1.2291,-1.2292,-1.2292,-1.2307,-1.2309,-1.231,0,0,0,0,0,-1.2419,-1.2417,-1.2412,-1.2409,-1.2388,-1.2376,-1.2374,-1.2361,-1.2357,-1.2356,-1.2345,-1.2336,-1.2315,-1.2314,-1.2311,-1.2312,-1.2291,-1.2292,-1.2292,-1.2307,-1.2309,-1.231,0,0,0,0,0,0,-1.2434,-1.2415,-1.2409,-1.2401,-1.2391,-1.2373,-1.2371,-1.2363,-1.2353,-1.2352,-1.2337,-1.2333,-1.2327,-1.2319,-1.2318,-1.2309,-1.2302,-1.2302,-1.2315,-1.2316,-1.2318,-1.232,-1.2305,0,0,0,0,0,-1.2436,-1.2429,-1.2412,-1.2407,-1.2402,-1.2388,-1.2382,-1.2374,-1.2362,-1.2358,-1.2346,-1.2335,-1.2327,-1.2321,-1.2312,-1.2306,-1.2303,-1.2306,-1.2307,-1.2308,-1.2308,-1.2307,-1.2308,-1.2294,-1.2294,-1.2294,0,0,-1.2441,-1.243,-1.2425,-1.241,-1.2401,-1.2394,-1.2384,-1.2376,-1.2371,-1.2356,-1.2348,-1.234,-1.2327,-1.232,-1.2317,-1.2313,-1.2312,-1.2309,-1.231,-1.2309,-1.2307,-1.2309,-1.231,-1.2294,-1.2294,-1.2294,0,0,-1.2446,-1.2436,-1.2431,-1.2423,-1.241,-1.2401,-1.24,-1.2384,-1.2378,-1.237,-1.2359,-1.2353,-1.2338,-1.233,-1.2324,-1.2328,-1.232,-1.2326,-1.2333,-1.2332,-1.2333,-1.2334,-1.2337,-1.2338,-1.2326,-1.2326,-1.2326,0,-1.2453,-1.2442,-1.243,-1.2424,-1.2418,-1.2405,-1.2401,-1.2393,-1.2378,-1.2374,-1.237,-1.2352,-1.2343,-1.2335,-1.2337,-1.2332,-1.2331,-1.2327,-1.2334,-1.2335,-1.2336,-1.2338,-1.2339,-1.2327,-1.2327,-1.2327,-1.2327,0,-1.2453,-1.2445,-1.2443,-1.243,-1.2424,-1.2418,-1.2406,-1.2401,-1.2394,-1.2385,-1.2378,-1.2366,-1.2355,-1.2353,-1.2345,-1.2345,-1.2343,-1.2337,-1.233,-1.2338,-1.234,-1.2341,-1.2328,-1.2328,-1.2327,-1.2327,0,0,-1.2464,-1.2446,-1.2445,-1.244,-1.2426,-1.242,-1.2415,-1.2405,-1.2402,-1.2392,-1.2388,-1.2377,-1.2372,-1.2365,-1.2356,-1.2355,-1.2362,-1.2349,-1.2349,-1.2353,-1.2362,-1.2368,-1.2369,-1.2356,-1.2356,-1.2356,-1.2364,0,-1.2468,-1.2458,-1.2448,-1.2442,-1.2436,-1.2425,-1.2421,-1.2412,-1.2405,-1.2399,-1.239,-1.2383,-1.2376,-1.2372,-1.237,-1.2361,-1.2363,-1.236,-1.2353,-1.2353,-1.2357,-1.237,-1.2375,-1.2382,-1.2365,-1.2365,-1.2365,0,-1.247,-1.2462,-1.2456,-1.2445,-1.2442,-1.2438,-1.243,-1.2424,-1.2414,-1.2409,-1.2403,-1.2394,-1.2389,-1.2383,-1.2377,-1.2375,-1.2372,-1.2367,-1.2367,-1.2366,-1.2359,-1.237,-1.2384,-1.2386,-1.2366,-1.2366,-1.2366,0,-1.248,-1.2468,-1.2464,-1.2459,-1.2445,-1.2444,-1.2438,-1.2428,-1.2424,-1.2416,-1.2413,-1.2405,-1.2401,-1.2395,-1.2385,-1.2381,-1.238,-1.2373,-1.2376,-1.2377,-1.2376,-1.2376,-1.2391,-1.2373,-1.2373,-1.2373,-1.2373,0,-1.2485,-1.2482,-1.2469,-1.2466,-1.2463,-1.2452,-1.2449,-1.2442,-1.2434,-1.243,-1.242,-1.2417,-1.2403,-1.2399,-1.2391,-1.2388,-1.2385,-1.2381,-1.238,-1.2383,-1.2383,-1.238,-1.238,-1.2373,-1.2373,-1.2373,-1.2373,0,-1.2496,-1.2487,-1.2481,-1.2469,-1.2466,-1.2465,-1.2455,-1.2452,-1.2445,-1.244,-1.2439,-1.2427,-1.2421,-1.2411,-1.2401,-1.2396,-1.2395,-1.2391,-1.2399,-1.2398,-1.2402,-1.2402,-1.2415,-1.2417,-1.2398,-1.2398,-1.2398,0,-1.25,-1.2498,-1.2486,-1.2483,-1.2478,-1.2473,-1.247,-1.2459,-1.2455,-1.2446,-1.2445,-1.2439,-1.2433,-1.2424,-1.2415,-1.2409,-1.2405,-1.241,-1.2404,-1.2408,-1.2406,-1.2407,-1.2407,-1.2412,-1.2412,-1.2412,-1.2412,0,-1.2508,-1.2504,-1.2499,-1.2493,-1.2489,-1.2483,-1.2477,-1.2475,-1.2464,-1.246,-1.2455,-1.2451,-1.2443,-1.2437,-1.243,-1.2424,-1.2417,-1.2415,-1.2415,-1.2419,-1.2423,-1.2422,-1.2403,-1.2414,-1.2414,-1.2414,-1.2414,-1.2414,-1.2516,-1.2514,-1.2507,-1.2502,-1.2497,-1.2492,-1.2489,-1.2483,-1.2478,-1.2471,-1.2466,-1.2461,-1.2454,-1.2443,-1.2438,-1.2435,-1.2431,-1.2432,-1.2432,-1.2433,-1.2435,-1.2424,-1.2434,-1.2434,-1.2433,-1.2433,-1.2433,0,-1.2524,-1.252,-1.2515,-1.2508,-1.2505,-1.2499,-1.2493,-1.249,-1.2487,-1.2481,-1.2476,-1.2471,-1.2466,-1.2458,-1.2452,-1.2452,-1.2448,-1.2451,-1.2451,-1.245,-1.2438,-1.2438,-1.2453,-1.2453,-1.2453,-1.2453,-1.2453,-1.2453,-1.2528,-1.2526,-1.2522,-1.2517,-1.2512,-1.2508,-1.2506,-1.2502,-1.2497,-1.2492,-1.2488,-1.2483,-1.2477,-1.2471,-1.2467,-1.2464,-1.2463,-1.2467,-1.2464,-1.2452,-1.245,-1.2449,-1.2449,-1.2467,-1.2467,-1.2476,-1.2476,-1.2476]}]]